This demonstration page uses our WeatherBlox Daily Observations layout. Learn more.

Left ArrowRight Arrow

39.01783, -85.05884

Hourly Observations for February 26, 2016

Temp ( °F °C ) Dew Point ( °F °C ) Humidity (%) Winds ( mph kmh ) Pressure ( in mb ) Visibility ( mi km ) Precip ( " mm )
12:52 am 00:52 Cloudy 32 undefined 24 -4.4 73 73 NW 10 17 30.13 1020 10 16 N/A
1:52 am 01:52 Cloudy 32 undefined 23 -5 69 69 NW 12 19 30.15 1021 10 16 N/A
2:52 am 02:52 Cloudy 32 undefined 21 -6.1 64 64 NNW 20 31 30.16 1021 10 16 N/A
3:52 am 03:52 Cloudy 31 -0.6 21 -6.1 67 67 NNW 12 19 30.17 1022 10 16 N/A
4:52 am 04:52 Cloudy with Light Snow 31 -0.6 22 -5.6 69 69 NW 8 13 30.18 1022 9 14 N/A
5:52 am 05:52 Cloudy 31 -0.6 22 -5.6 69 69 WNW 9 15 30.20 1023 10 16 N/A
6:52 am 06:52 Cloudy 31 -0.6 23 -5 72 72 W 7 11 30.22 1023 10 16 N/A
7:52 am 07:52 Cloudy with Light Snow 31 -0.6 23 -5 72 72 WNW 8 13 30.24 1024 10 16 N/A
8:52 am 08:52 Cloudy with Light Snow 32 undefined 24 -4.4 73 73 W 8 13 30.26 1025 8 13 N/A
9:52 am 09:52 Cloudy 34 1.1 21 -6.1 59 59 WNW 13 20 30.27 1025 10 16 N/A
10:52 am 10:52 Mostly Cloudy 35 1.7 20 -6.7 54 54 W 10 17 30.28 1025 10 16 N/A
11:52 am 11:52 Cloudy 35 1.7 21 -6.1 57 57 NNW 12 19 30.29 1026 10 16 N/A
12:52 pm 12:52 Cloudy 36 2.2 20 -6.7 52 52 NNW 7 11 30.27 1025 10 16 N/A
1:52 pm 13:52 Cloudy 36 2.2 20 -6.7 52 52 WNW 7 11 30.25 1024 10 16 N/A
2:52 pm 14:52 Cloudy 37 2.8 19 -7.2 48 48 W 7 11 30.24 1024 10 16 N/A
3:52 pm 15:52 Cloudy 37 2.8 20 -6.7 50 50 WNW 9 15 30.23 1024 10 16 N/A
4:52 pm 16:52 Mostly Cloudy 37 2.8 20 -6.7 50 50 WNW 7 11 30.22 1024 10 16 N/A
5:52 pm 17:52 Mostly Cloudy 36 2.2 21 -6.1 55 55 W 3 6 30.21 1023 10 16 N/A
6:52 pm 18:52 Cloudy 35 1.7 20 -6.7 54 54 N N/A 30.21 1023 10 16 N/A
7:52 pm 19:52 Cloudy 32 undefined 23 -5 69 69 N N/A 30.20 1023 10 16 N/A
8:52 pm 20:52 Cloudy 34 1.1 21 -6.1 59 59 N N/A 30.19 1023 10 16 N/A
9:52 pm 21:52 Cloudy 34 1.1 21 -6.1 59 59 N N/A 30.19 1023 10 16 N/A
10:52 pm 22:52 Cloudy 33 0.6 24 -4.4 70 70 WNW 3 6 30.20 1023 10 16 N/A
11:52 pm 23:52 Cloudy 33 0.6 24 -4.4 70 70 NW 6 9 30.19 1023 10 16 N/A

Powered by AerisWeather